,

(GMT )
Telfer

Weather History for 94319 - December, 2013

Change the Weather History Date:

Friday, December 13, 2013

  Actual Average Record
Temperature  
Mean Temperature 94 °F -  
Max Temperature 105 °F - - ()
Min Temperature 82 °F - - ()
Cooling Degree Days 28    
Growing Degree Days 44 (Base 50)    
Moisture  
Dew Point 52 °F    
Average Humidity 22    
Maximum Humidity 33    
Minimum Humidity 9    
Precipitation  
Precipitation 0.00 in - - ()
Sea Level Pressure  
Sea Level Pressure 29.77 in    
Wind  
Wind Speed 9 mph ()    
Max Wind Speed 22 mph    
Max Gust Speed 29 mph    
T = Trace of Precipitation, MM = Missing Value Source: Averaged Metar Reports

Daily Weather History Graph

Daily Weather History Graph

Search for Another Location

Airport or City:

Trip Planner

Search our weather history database for the weather conditions in past years. The results will help you decide how hot, cold, wet, or windy it might be!

Date:

Astronomy

Dec. 12, 2013 Rise Set
Actual Time 9:02 PM GMT 10:28 AM GMT
Civil Twilight 8:37 PM GMT 10:53 AM GMT
Nautical Twilight 8:07 PM GMT 11:23 AM GMT
Astronomical Twilight 7:36 PM GMT 11:54 AM GMT
Moon 6:57 AM GMT (12/13) 6:32 PM GMT (12/13)
Length of Visible Light 14h 16m
Length of Day
13h 26m
Waxing Gibbous, 86% of the Moon is Illuminated
Dec 13
Waxing Gibbous
Dec 17
Full
Dec 25
Last Quarter
Jan 1
New
Jan 8
First Quarter

Hourly Weather History & Observations

Time (GMT) Temp. Heat Index Dew Point Humidity Pressure Visibility Wind Dir Wind Speed Gust Speed Precip Events Conditions
12:00 AM 91 °F - 50 °F 16% 29.79 in - SSE 10.4 mph - -  
12:00 AM 91.4 °F - 50.0 °F 24% 29.86 in - SSE 10.4 mph - N/A   Unknown
1:00 AM 95 °F - 52 °F 15% 29.79 in - SE 11.5 mph - -  
1:00 AM 95.0 °F - 51.8 °F 23% 29.86 in - SE 11.5 mph - N/A   Unknown
2:00 AM 96.8 °F - 51.8 °F 22% 29.83 in - East 11.5 mph - N/A   Unknown
3:00 AM 100 °F - 52 °F 12% 29.76 in - East 10.4 mph - -  
3:00 AM 100.4 °F - 51.8 °F 20% 29.83 in - East 10.4 mph - N/A   Unknown
4:00 AM 101 °F - 50 °F 10% 29.74 in - NE 6.9 mph - -  
4:00 AM 100.4 °F - 50.0 °F 18% 29.80 in - NE 6.9 mph - N/A   Unknown
5:00 AM 102.2 °F - 50.0 °F 17% 29.77 in - SSE 10.4 mph - N/A   Unknown
6:00 AM 105 °F - 49 °F 9% 29.68 in - ESE 9.2 mph - -  
6:00 AM 104.0 °F - 50.0 °F 16% 29.74 in - ESE 9.2 mph - N/A   Unknown
7:00 AM 103 °F - 53 °F 11% 29.67 in - SSE 9.2 mph - -  
7:00 AM 102.2 °F 100.4 °F 53.6 °F 20% 29.74 in - SSE 9.2 mph - N/A   Unknown
8:00 AM 102.2 °F 100.4 °F 53.6 °F 20% 29.71 in - SSE 9.2 mph - N/A   Unknown
8:53 AM 102.2 °F 100.9 °F 55.4 °F 21% 29.71 in - ESE 17.3 mph 28.8 mph N/A   Unknown
9:00 AM 100 °F - 56 °F 15% 29.67 in - ESE 21.9 mph - -  
9:00 AM 100.4 °F 98.8 °F 55.4 °F 22% 29.74 in - ESE 21.9 mph - N/A   Unknown
10:00 AM 100 °F - 54 °F 14% 29.69 in - ESE 12.7 mph - -  
10:00 AM 100.4 °F 98.4 °F 53.6 °F 21% 29.74 in - ESE 12.7 mph - N/A   Unknown
11:00 AM 95.0 °F 93.7 °F 57.2 °F 28% 29.77 in - East 5.8 mph - N/A   Unknown
12:00 PM 92 °F - 57 °F 22% 29.74 in - East 4.6 mph - -  
12:00 PM 93.2 °F 91.9 °F 57.2 °F 30% 29.80 in - East 4.6 mph - N/A   Unknown
1:00 PM 91 °F - 57 °F 22% 29.76 in - SE 4.6 mph - -  
1:00 PM 91.4 °F 89.9 °F 57.2 °F 31% 29.83 in - SE 4.6 mph - N/A   Unknown
2:00 PM 89.6 °F 88.1 °F 57.2 °F 33% 29.83 in - ESE 4.6 mph - N/A   Unknown
3:00 PM 88 °F - 54 °F 21% 29.76 in - SE 5.8 mph - -  
3:00 PM 87.8 °F 85.7 °F 53.6 °F 31% 29.83 in - SE 5.8 mph - N/A   Unknown
4:00 PM 86 °F - 54 °F 23% 29.74 in - SSE 6.9 mph - -  
4:00 PM 86.0 °F 84.2 °F 53.6 °F 33% 29.80 in - SSE 6.9 mph - N/A   Unknown
5:00 PM 87.8 °F - 51.8 °F 29% 29.77 in - SSE 10.4 mph - N/A   Unknown
6:00 PM 87 °F - 49 °F 17% 29.73 in - WNW 5.8 mph - -  
6:00 PM 87.8 °F - 50.0 °F 27% 29.80 in - WNW 5.8 mph - N/A   Unknown
7:00 PM 86 °F - 48 °F 17% 29.73 in - ESE 8.1 mph - -  
7:00 PM 86.0 °F - 48.2 °F 27% 29.80 in - ESE 8.1 mph - N/A   Unknown
8:00 PM 82.4 °F - 48.2 °F 30% 29.80 in - SE 6.9 mph - N/A   Unknown
9:00 PM 82 °F - 47 °F 19% 29.74 in - SSE 13.8 mph - -  
9:00 PM 82.4 °F - 46.4 °F 28% 29.80 in - SSE 13.8 mph - N/A   Unknown
10:00 PM 82 °F - 47 °F 20% 29.77 in - SE 13.8 mph - -  
10:00 PM 82.4 °F - 48.2 °F 30% 29.83 in - SE 13.8 mph - N/A   Unknown
11:00 PM 86.0 °F - 51.8 °F 31% 29.86 in - SE 11.5 mph - N/A   Unknown